Theta_e
309 309 309 309 311 313 313 312 312 315 316 311 310 310 313 313 312 312 313 313 312 313 313 313 313 314 314 314 313 314 311 308 311 313 312 314 313 312 309 312 314 318 322 324
309 309 309 311 312 313 310 312 314 315 316 312 311 312 313 313 312 313 313 313 312 311 311 313 313 313 314 314 313 313 312 309 311 312 311 310 312 311 311 309 308 314 317 318
309 309 311 313 314 315 312 312 312 309 307 307 312 314 313 314 313 313 313 312 311 311 312 309 312 313 314 316 316 318 311 307 309 311 312 310 311 311 311 310 311 311 313 314
309 308 312 314 316 317 315 310 310 309 312 311 310 310 312 314 314 312 311 313 313 311 312 311 312 311 311 312 315 312 308 308 311 310 313 313 314 314 312 311 312 314 313 312
309 308 312 314 316 317 316 312 313 309 309 309 310 310 311 313 313 312 312 312 313 310 311 312 312 310 309 310 308 311 309 312 313 314 314 313 312 312 313 313 312 313 313 314
309 308 312 313 315 317 316 316 316 308 310 310 310 311 313 313 313 312 312 312 311 312 312 310 309 308 307 307 309 308 309 310 311 313 314 312 311 310 312 312 313 321 328 324
309 308 311 313 315 316 316 317 316 310 312 312 312 314 314 314 313 314 312 310 311 311 309 308 308 308 308 308 308 304 308 307 309 310 312 315 310 309 312 315 321 321 321 321
309 308 310 313 315 317 316 316 318 313 312 313 314 314 314 312 312 313 312 312 310 309 308 309 310 311 311 312 310 309 305 306 309 311 311 311 312 310 310 318 320 317 318 318
309 309 310 312 314 315 316 317 316 316 312 312 314 314 313 311 312 312 313 311 310 307 307 309 313 313 314 313 312 307 308 307 311 311 310 314 311 316 315 315 319 316 316 316
309 309 309 309 313 315 316 317 316 317 314 311 311 312 313 311 311 311 311 312 309 307 308 307 312 307 311 308 313 312 309 311 310 310 313 314 313 313 314 316 314 313 313 313
309 309 308 308 309 315 317 318 317 315 312 313 315 315 312 311 310 310 310 308 307 306 307 306 302 306 311 310 311 310 311 312 313 310 310 314 310 313 315 312 309 309 310 310
309 308 309 309 308 310 309 317 317 317 315 314 317 318 315 313 312 309 308 307 308 306 305 305 300 303 304 303 310 307 312 308 305 311 317 309 309 310 308 306 305 306 307 307
310 309 309 309 308 308 308 310 312 316 311 311 313 315 317 315 313 314 310 308 306 307 304 304 303 305 308 308 305 308 308 306 307 305 307 307 307 306 305 306 305 305 305 307
310 310 309 309 309 309 310 311 312 315 314 314 313 317 317 317 314 313 313 310 310 307 307 305 305 304 304 304 304 307 303 305 305 306 305 306 306 306 305 306 304 305 306 306
310 310 310 310 310 311 314 316 317 316 315 314 312 315 316 316 315 313 312 311 307 307 308 313 312 305 305 306 308 308 307 305 305 303 302 307 306 305 305 306 305 305 304 306
310 310 311 310 310 311 316 314 314 315 315 312 314 314 317 316 316 312 310 310 308 308 311 314 311 305 304 308 308 304 304 303 302 304 303 304 304 305 305 306 306 305 304 305
311 310 310 310 310 311 313 314 316 315 315 311 315 314 317 318 316 314 313 313 313 310 313 314 308 307 306 301 306 305 305 305 304 304 305 305 305 305 305 305 305 305 304 304
310 310 310 310 310 310 311 315 314 315 314 313 316 317 319 317 315 317 315 315 314 314 315 311 312 308 306 311 306 305 307 306 306 306 306 305 305 305 306 306 306 306 305 304
310 310 309 310 311 312 316 316 316 314 314 316 318 320 320 316 319 318 316 317 319 317 318 317 313 308 309 308 305 307 310 309 309 307 307 308 307 305 305 307 307 307 306 304
310 310 313 314 317 317 315 313 313 313 313 311 315 315 320 318 318 321 320 319 320 320 319 317 315 313 308 305 305 308 309 308 307 308 308 307 306 306 306 306 306 306 306 305
313 313 316 319 316 316 317 317 317 318 318 314 315 319 321 316 318 317 319 318 319 320 320 319 317 318 316 312 311 307 310 310 309 308 307 306 306 306 305 305 306 306 305 305
315 313 314 315 316 318 321 324 324 324 324 318 319 318 317 318 319 320 320 320 320 320 317 313 312 313 313 313 311 312 310 310 310 310 309 309 309 308 305 305 306 306 306 304
313 314 318 321 319 322 327 327 322 325 323 321 320 320 317 318 317 319 319 321 321 315 312 316 314 313 312 311 311 311 311 311 310 311 310 310 309 308 306 305 307 307 306 306
315 322 317 324 324 327 325 324 323 322 321 319 319 320 316 315 314 317 319 318 315 315 313 315 308 308 308 308 309 310 309 310 310 310 310 309 308 306 307 307 306 306 306 306
319 322 318 324 324 322 321 318 319 319 317 319 317 317 314 315 317 317 314 316 314 310 308 311 308 307 306 307 307 306 307 307 308 309 309 308 308 307 306 306 305 306 307 306
320 320 322 322 325 323 319 317 316 317 319 317 315 318 317 317 315 316 316 313 310 311 308 308 310 308 307 307 306 307 307 307 308 308 307 307 307 307 306 306 306 306 306 306
323 322 322 325 325 323 320 315 318 317 314 317 315 318 317 312 315 315 312 311 309 308 308 310 308 308 307 306 307 306 309 307 307 307 307 306 307 306 305 306 306 306 306 306
Wind_Speed
30 30 31 30 35 39 15 5 4 28 9 5 1 3 3 6 9 11 7 7 7 5 6 7 5 6 4 4 3 4 5 3 4 3 6 3 4 6 5 4 7 1 4 4
29 28 27 29 33 33 8 2 3 22 12 4 5 5 12 10 8 9 6 10 8 7 7 5 5 6 9 6 5 3 4 4 4 11 7 8 7 10 5 3 3 2 3 5
27 25 25 27 31 25 4 2 4 5 5 1 5 4 9 5 11 11 7 7 8 8 9 8 6 8 12 13 8 12 7 4 5 4 4 4 7 12 8 5 2 5 3 14
25 23 23 27 28 20 4 3 1 3 3 5 8 8 4 8 6 7 11 7 10 5 7 6 6 8 7 6 13 6 5 2 4 3 6 8 10 13 12 6 4 2 7 7
22 21 21 26 28 14 7 3 3 5 2 4 10 7 5 6 4 4 4 5 6 10 5 2 3 5 5 2 7 7 5 1 4 5 7 8 9 11 12 11 6 5 6 5
20 19 19 23 28 18 9 8 6 4 6 3 5 3 4 4 2 7 5 6 4 6 3 3 5 4 4 6 0 3 1 3 2 2 4 5 7 5 4 11 6 3 3 3
17 15 15 18 23 23 9 6 2 4 3 3 3 4 3 3 4 2 4 6 3 3 5 5 3 3 5 5 8 5 2 4 3 3 4 2 7 6 6 3 12 8 3 8
15 12 11 13 17 15 18 16 4 3 2 4 5 8 5 5 2 1 5 1 3 3 5 4 5 5 6 5 4 6 3 4 2 3 4 6 9 7 6 6 6 7 4 9
12 10 8 11 13 15 9 18 13 3 4 3 3 3 2 3 2 3 1 4 6 6 3 3 3 2 2 4 9 5 5 4 4 3 3 5 2 8 12 2 3 7 8 8
10 9 5 8 8 11 10 10 19 3 2 4 3 2 2 3 2 2 1 2 4 5 3 3 2 1 1 1 3 4 4 4 2 4 4 6 8 13 8 3 2 7 8 9
10 8 5 6 6 9 9 5 12 8 1 5 1 1 3 2 3 3 3 4 5 4 4 2 2 2 1 2 1 0 1 2 2 3 2 6 10 3 3 6 3 4 5 9
9 7 5 6 6 6 9 3 9 14 2 5 11 14 8 8 8 5 2 6 2 4 3 1 2 2 1 3 2 1 4 4 3 4 2 2 5 2 5 5 6 5 9 12
7 7 5 5 5 7 8 6 13 12 3 5 3 6 13 10 12 10 4 1 5 3 4 3 2 2 3 4 3 2 2 2 2 4 1 1 5 3 3 8 11 12 12 13
5 5 4 5 5 6 8 7 6 4 2 1 5 4 5 16 16 12 9 13 6 9 3 3 3 3 4 4 3 3 4 3 4 4 9 8 6 4 6 11 12 13 13 14
5 6 5 5 7 8 9 7 1 8 3 2 4 19 18 15 17 20 25 25 6 3 2 2 3 2 3 2 2 4 6 6 5 6 6 4 7 8 11 9 11 10 13 13
7 6 6 5 7 8 5 3 5 8 4 2 4 5 3 21 19 23 19 17 4 4 3 3 3 4 4 3 4 6 8 6 7 5 6 7 8 7 9 9 11 13 14 15
8 8 7 6 6 6 3 4 5 6 3 2 4 4 2 7 6 4 2 9 3 4 3 3 4 3 5 3 4 6 9 12 8 7 4 6 8 7 6 10 12 11 13 16
8 7 7 6 7 10 7 6 13 12 3 1 2 4 3 6 3 2 3 3 3 2 4 2 3 2 2 4 7 6 6 8 7 8 10 9 8 8 9 13 12 9 7 11
5 4 3 2 3 3 2 4 5 11 1 2 2 2 3 3 3 2 2 3 2 2 3 3 3 2 5 7 7 6 8 8 8 9 9 9 10 10 9 8 6 5 5 7
1 0 0 1 4 6 9 2 2 1 1 1 3 3 4 3 2 3 1 2 3 3 3 4 3 3 4 5 7 5 8 9 6 3 6 5 7 10 11 9 6 5 4 7
1 3 2 0 10 5 3 2 2 2 3 3 4 5 4 2 3 4 4 2 3 2 2 2 2 2 3 5 2 2 8 13 10 14 12 12 9 7 7 5 10 6 6 2
1 8 8 3 3 2 2 2 1 4 4 3 2 4 4 3 1 2 3 3 2 3 1 3 2 2 6 9 8 7 5 3 1 8 8 10 10 15 10 9 11 12 10 10
3 3 2 3 1 1 2 2 3 4 2 3 3 3 2 0 3 0 1 2 4 2 1 1 2 1 6 10 6 8 5 9 8 9 11 7 10 11 9 9 10 14 13 11
2 3 3 4 3 2 4 4 4 4 3 4 3 2 0 2 2 2 2 2 3 3 3 2 3 5 7 7 7 9 8 8 7 6 9 6 3 11 10 11 8 9 14 14
3 1 3 4 4 2 8 3 4 4 3 2 3 2 2 2 1 2 3 4 3 1 3 3 4 4 6 7 4 5 5 5 6 4 6 9 12 12 14 10 7 6 6 7
3 4 3 5 2 3 1 3 5 3 3 2 3 1 2 3 0 4 4 3 2 3 3 3 2 4 5 6 3 4 1 10 13 14 11 6 13 11 6 9 1 3 9 6
4 4 2 3 4 4 3 3 4 3 3 2 2 4 2 1 3 2 1 3 3 3 3 3 4 5 6 6 3 4 5 15 13 8 1 7 9 6 2 4 2 3 6 8
Wind_Direction
359 2 3 7 1 356 11 4 42 356 134 52 52 67 23 69 10 19 17 46 52 54 25 32 73 58 77 27 8 50 330 114 334 245 268 250 127 78 48 49 316 326 132 278
359 3 7 7 3 358 358 48 286 19 54 63 10 7 77 68 32 14 11 13 22 24 31 62 66 45 17 47 61 79 334 14 10 341 12 21 37 6 28 260 348 325 120 266
1 7 11 4 3 354 25 73 24 335 33 62 109 98 50 51 32 46 48 43 37 30 27 13 43 31 9 24 49 49 65 71 131 183 233 269 322 335 347 109 10 327 271 330
4 13 13 7 6 2 39 43 305 191 347 3 58 61 69 49 19 13 24 38 28 14 26 23 27 5 0 9 21 24 86 90 25 353 11 352 340 342 335 326 239 184 294 318
9 18 20 13 16 10 41 71 51 11 26 39 56 34 15 64 353 52 18 70 12 55 81 76 316 32 27 296 350 16 6 345 44 360 35 10 323 309 308 304 348 310 334 336
11 19 26 19 26 40 41 4 350 98 313 46 74 23 53 79 68 7 99 89 43 36 353 280 236 221 195 241 95 339 92 110 70 267 65 7 307 270 294 294 338 88 89 295
12 20 30 23 34 38 40 14 339 65 353 79 108 106 118 121 105 102 93 88 93 254 297 323 330 281 237 256 280 167 234 123 136 205 74 214 244 312 272 302 64 59 38 9
10 20 32 25 38 41 43 26 29 81 35 43 86 75 71 48 96 77 91 78 190 290 24 39 21 2 17 9 23 331 149 123 152 168 182 277 298 287 244 172 88 39 7 1
7 11 34 21 31 36 39 28 18 84 104 315 84 106 125 130 71 25 83 71 55 50 67 61 78 65 353 339 339 9 35 103 135 137 153 243 224 332 323 314 145 10 8 4
6 1 23 5 17 17 25 22 15 72 102 274 96 121 163 129 118 143 317 98 30 51 51 62 62 110 211 312 337 336 342 355 209 207 210 272 356 312 303 180 261 350 358 348
1 352 7 343 358 22 24 12 14 18 141 277 43 341 128 47 91 131 255 41 8 37 67 102 253 106 186 230 324 35 91 332 332 328 243 244 4 341 60 349 295 322 334 326
1 351 3 342 338 356 6 355 10 351 187 241 309 299 214 154 179 140 50 158 136 174 102 116 108 55 57 169 232 40 196 177 206 211 291 20 327 8 331 347 302 297 308 310
1 359 15 350 339 347 355 340 355 359 17 317 34 249 217 195 203 178 121 310 154 145 158 149 158 154 150 191 236 219 187 123 223 359 158 296 283 295 332 309 307 303 298 296
338 337 1 1 347 345 346 340 327 324 276 141 283 332 227 215 186 176 164 138 114 134 118 133 165 170 162 193 189 209 205 168 197 252 285 305 235 299 301 302 312 301 301 300
305 311 322 332 333 338 332 313 358 335 202 238 277 309 268 212 178 150 148 140 120 119 153 164 204 146 121 187 146 227 179 190 179 216 200 208 265 280 295 288 304 311 302 295
293 288 300 313 325 338 350 38 71 67 50 60 315 288 257 195 193 160 150 153 132 144 178 213 192 173 120 162 225 246 200 207 184 210 193 209 240 262 270 286 314 302 313 301
301 281 282 296 309 304 227 206 153 88 42 89 297 291 298 184 139 171 153 177 163 138 194 226 172 181 139 150 214 247 206 216 220 212 190 259 234 245 242 275 314 291 314 305
288 292 284 290 290 289 284 280 240 235 269 161 257 271 323 180 211 203 167 161 142 209 199 172 139 100 104 232 238 245 228 215 231 215 206 233 259 244 256 268 281 304 303 326
299 314 297 293 228 237 152 85 148 175 213 240 250 224 269 41 12 337 291 146 186 217 193 187 136 170 211 219 204 213 196 186 221 224 228 240 246 258 268 266 263 288 321 329
306 332 162 277 212 136 139 167 52 51 235 253 248 284 276 106 168 143 346 294 184 211 223 131 179 237 255 204 200 193 196 196 175 187 256 245 259 258 264 242 230 248 278 335
103 214 213 111 153 190 196 193 163 181 246 215 237 215 261 242 156 190 170 223 204 221 140 179 263 329 27 262 198 249 172 195 197 200 219 214 218 232 245 250 208 232 217 223
259 284 287 210 199 224 233 212 150 214 242 178 209 247 211 275 77 75 168 237 150 49 81 47 22 298 340 1 344 342 274 208 301 235 222 224 250 231 239 262 205 217 221 207
277 228 240 162 228 355 306 293 248 246 219 202 208 288 242 352 40 196 255 8 45 57 72 85 239 308 158 233 264 284 284 163 180 233 278 259 305 234 243 270 230 214 220 232
211 203 292 174 231 178 225 216 220 271 219 252 211 277 342 21 21 268 99 76 119 70 53 277 255 219 232 252 262 271 214 203 206 220 265 303 257 248 256 240 247 218 214 232
244 204 243 191 118 156 261 271 275 249 241 226 355 37 99 36 2 285 57 52 46 140 223 242 249 257 257 283 271 193 184 179 153 176 6 322 301 282 263 233 272 324 174 200
235 242 280 140 170 241 215 223 247 232 200 50 58 20 43 3 117 49 29 80 238 245 218 227 183 245 277 268 315 328 72 164 158 179 186 255 267 248 192 207 251 61 164 136
250 252 266 67 356 249 201 200 249 184 82 78 67 43 299 38 60 44 14 201 225 227 211 173 226 223 260 266 278 307 132 159 182 211 246 336 357 335 102 140 197 123 126 117